CZ-11 R/B

Last updated on June 26, 2019, 12:02 a.m. UTC

1 44317U 19032H   19176.47479403  .00014915  86457-5  12705-3 0  9999
2 44317  44.9136 187.5535 0262567  59.3911 303.2609 15.38713152  3112

Satellite is not in orbit.